Location: The Saddle
(36.8333°N, 80.3417°W)
Time: 01:24:58
(UTC-04:00)

Vanguard 3 - Pass Details

Date: 24 May 2026
Orbit: 507 x 3204 km, 33.3° (Epoch: 9 June)

Event Time Altitude Azimuth Distance (km) Brightness Sun altitude
Rises 10:59:51 0° 222° (SW) 4,703 10.9 56.0°
Reaches altitude 10° 11:02:38 10° 216° (SW) 4,031 10.7 56.5°
Maximum altitude 11:13:37 48° 146° (SSE) 2,987 11.6 58.6°
Drops below altitude 10° 11:30:25 10° 80° (E) 6,018 12.1 61.6°
Sets 11:35:39 0° 76° (ENE) 7,142 12.2 62.6°
